AUA101 LOWW-LOWI

Flight info

Callsign AUA101
Flight time 0h 45m
Altitude 30000
Route SOVIL DCT SITNI DCT BAGSI DCT NANIT NANIT2A
Aircraft A319/M-SDE3FGHIRWY/LB1

Departure

Time 2026-04-22 02:54
Airport Vienna International Airport (LOWW)

Arrival

Time 2026-04-22 03:39
Airport Innsbruck Airport (LOWI)
Time Latitude Longitude Altitude Speed Heading
2026-04-22 02:23 48.11782 16.56574 610 ft 0 kts 25°
2026-04-22 02:43 48.11781 16.56573 610 ft 2 kts 25°
2026-04-22 02:43 48.11758 16.56557 624 ft 4 kts 27°
2026-04-22 02:43 48.11735 16.56537 626 ft 4 kts 37°
2026-04-22 02:43 48.11718 16.56510 616 ft 4 kts 77°
2026-04-22 02:44 48.11717 16.56493 623 ft 0 kts 116°
2026-04-22 02:51 48.11716 16.56498 624 ft 2 kts 116°
2026-04-22 02:51 48.11693 16.56568 614 ft 12 kts 116°
2026-04-22 02:51 48.11655 16.56685 619 ft 13 kts 116°
2026-04-22 02:51 48.11614 16.56810 616 ft 14 kts 116°
2026-04-22 02:52 48.11572 16.56942 615 ft 14 kts 116°
2026-04-22 02:52 48.11526 16.57081 617 ft 15 kts 116°
2026-04-22 02:52 48.11479 16.57228 615 ft 16 kts 116°
2026-04-22 02:52 48.11422 16.57372 610 ft 16 kts 150°
2026-04-22 02:53 48.11319 16.57335 616 ft 16 kts 207°
2026-04-22 02:53 48.11216 16.57261 614 ft 17 kts 205°
2026-04-22 02:53 48.11108 16.57185 619 ft 18 kts 206°
2026-04-22 02:53 48.11067 16.57064 610 ft 16 kts 292°
2026-04-22 02:54 48.11202 16.56652 615 ft 83 kts 296°
2026-04-22 02:54 48.11561 16.55560 617 ft 148 kts 296°
2026-04-22 02:54 48.12022 16.54143 1277 ft 148 kts 298°
2026-04-22 02:54 48.12353 16.52689 1990 ft 158 kts 276°
2026-04-22 02:55 48.12002 16.50985 2398 ft 187 kts 247°
2026-04-22 02:55 48.11327 16.49179 2799 ft 211 kts 242°
2026-04-22 02:55 48.10535 16.47175 3234 ft 236 kts 242°
2026-04-22 02:55 48.09639 16.44964 3791 ft 261 kts 236°
2026-04-22 02:56 48.08523 16.42727 4646 ft 273 kts 233°
2026-04-22 02:56 48.07344 16.40472 5700 ft 277 kts 233°
2026-04-22 02:56 48.06152 16.38194 6777 ft 280 kts 234°
2026-04-22 02:56 48.04959 16.35877 7795 ft 282 kts 234°
2026-04-22 02:57 48.03940 16.33359 8785 ft 285 kts 248°
2026-04-22 02:57 48.03393 16.30510 9779 ft 287 kts 264°
2026-04-22 02:57 48.03333 16.27508 10588 ft 296 kts 274°
2026-04-22 02:57 48.03403 16.24309 10977 ft 320 kts 274°
2026-04-22 02:58 48.03481 16.20882 11464 ft 337 kts 274°
2026-04-22 02:58 48.03553 16.17338 12253 ft 344 kts 274°
2026-04-22 02:58 48.03619 16.13736 13092 ft 349 kts 273°
2026-04-22 02:58 48.03679 16.10081 13920 ft 355 kts 273°
2026-04-22 02:59 48.03737 16.06369 14664 ft 360 kts 273°
2026-04-22 02:59 48.03796 16.02609 15396 ft 364 kts 273°
2026-04-22 02:59 48.03856 15.98803 16134 ft 369 kts 273°
2026-04-22 02:59 48.03916 15.94944 16858 ft 374 kts 273°
2026-04-22 03:00 48.03974 15.91035 17565 ft 379 kts 273°
2026-04-22 03:00 48.04030 15.87081 18299 ft 383 kts 273°
2026-04-22 03:00 48.04086 15.83086 18951 ft 387 kts 273°
2026-04-22 03:00 48.04142 15.79032 19565 ft 392 kts 273°
2026-04-22 03:01 48.04197 15.74939 20175 ft 396 kts 273°
2026-04-22 03:01 48.04252 15.70797 20790 ft 401 kts 273°
2026-04-22 03:01 48.04306 15.66613 21403 ft 405 kts 273°
2026-04-22 03:01 48.04359 15.62375 22017 ft 410 kts 273°
2026-04-22 03:02 48.04411 15.58091 22609 ft 414 kts 273°
2026-04-22 03:02 48.04462 15.53768 23192 ft 419 kts 273°
2026-04-22 03:02 48.04511 15.49394 23752 ft 423 kts 273°
2026-04-22 03:02 48.04560 15.45030 24179 ft 428 kts 273°
2026-04-22 03:03 48.04609 15.40563 24648 ft 432 kts 273°
2026-04-22 03:03 48.04658 15.36072 25174 ft 433 kts 273°
2026-04-22 03:03 48.04720 15.31570 25714 ft 434 kts 273°
2026-04-22 03:03 48.04792 15.27057 26225 ft 435 kts 273°
2026-04-22 03:04 48.04870 15.22522 26713 ft 437 kts 273°
2026-04-22 03:04 48.04950 15.17975 27199 ft 439 kts 273°
2026-04-22 03:04 48.05025 15.13399 27674 ft 441 kts 273°
2026-04-22 03:04 48.05098 15.08804 28135 ft 444 kts 273°
2026-04-22 03:05 48.05169 15.04182 28574 ft 446 kts 273°
2026-04-22 03:05 48.05235 14.99525 28954 ft 450 kts 273°
2026-04-22 03:05 48.05295 14.94835 29355 ft 453 kts 273°
2026-04-22 03:05 48.05347 14.90123 29764 ft 455 kts 273°
2026-04-22 03:06 48.05400 14.85376 30149 ft 457 kts 273°
2026-04-22 03:06 48.05499 14.75980 30247 ft 446 kts 273°
2026-04-22 03:07 48.05569 14.66758 30247 ft 443 kts 272°
2026-04-22 03:07 48.05632 14.57555 30242 ft 443 kts 273°
2026-04-22 03:08 48.05687 14.48356 30246 ft 442 kts 272°
2026-04-22 03:08 48.05738 14.39165 30246 ft 442 kts 272°
2026-04-22 03:09 48.05382 14.29984 30243 ft 445 kts 260°
2026-04-22 03:09 48.05020 14.27749 30242 ft 446 kts 255°
2026-04-22 03:13 48.03803 14.22995 30252 ft 448 kts 244°
2026-04-22 03:13 48.01034 14.14714 30192 ft 444 kts 244°
2026-04-22 03:14 47.98748 14.07789 30232 ft 450 kts 245°
2026-04-22 03:14 47.95980 13.99410 30232 ft 450 kts 245°
2026-04-22 03:15 47.93201 13.91045 30229 ft 450 kts 245°
2026-04-22 03:15 47.90404 13.82700 30227 ft 450 kts 245°
2026-04-22 03:16 47.87599 13.74355 30229 ft 450 kts 245°
2026-04-22 03:16 47.84789 13.66009 30229 ft 450 kts 245°
2026-04-22 03:17 47.81978 13.57691 30233 ft 449 kts 245°
2026-04-22 03:17 47.79168 13.49411 30243 ft 447 kts 245°
2026-04-22 03:18 47.76359 13.41171 30238 ft 446 kts 245°
2026-04-22 03:18 47.74957 13.37061 30109 ft 447 kts 245°
2026-04-22 03:18 47.73551 13.32943 29814 ft 447 kts 245°
2026-04-22 03:19 47.72142 13.28824 29524 ft 447 kts 245°
2026-04-22 03:19 47.70732 13.24706 29227 ft 448 kts 245°
2026-04-22 03:19 47.69316 13.20577 28953 ft 449 kts 244°
2026-04-22 03:19 47.67895 13.16444 28672 ft 450 kts 244°
2026-04-22 03:20 47.66479 13.12331 28334 ft 444 kts 245°
2026-04-22 03:20 47.65080 13.08281 27657 ft 439 kts 245°
2026-04-22 03:20 47.63695 13.04282 27032 ft 434 kts 245°
2026-04-22 03:20 47.62343 13.00376 26416 ft 430 kts 245°
2026-04-22 03:21 47.60987 12.96459 25795 ft 426 kts 245°
2026-04-22 03:21 47.59644 12.92583 25180 ft 422 kts 245°
2026-04-22 03:21 47.58301 12.88721 24577 ft 419 kts 244°
2026-04-22 03:21 47.56959 12.84861 23988 ft 410 kts 244°
2026-04-22 03:22 47.55685 12.81204 23389 ft 399 kts 244°
2026-04-22 03:22 47.54415 12.77570 22860 ft 386 kts 244°
2026-04-22 03:22 47.53191 12.74075 22398 ft 377 kts 244°
2026-04-22 03:22 47.52006 12.70698 21995 ft 363 kts 244°
2026-04-22 03:23 47.50861 12.67430 21463 ft 353 kts 245°
2026-04-22 03:23 47.49744 12.64242 20854 ft 346 kts 245°
2026-04-22 03:23 47.48657 12.61148 20189 ft 342 kts 245°
2026-04-22 03:23 47.47567 12.58048 19533 ft 338 kts 245°
2026-04-22 03:24 47.46486 12.54979 18885 ft 335 kts 245°
2026-04-22 03:24 47.45413 12.51937 18272 ft 332 kts 245°
2026-04-22 03:24 47.44357 12.48948 17755 ft 323 kts 245°
2026-04-22 03:24 47.43327 12.46035 17329 ft 319 kts 245°
2026-04-22 03:25 47.42301 12.43128 16884 ft 319 kts 245°
2026-04-22 03:25 47.41272 12.40220 16444 ft 320 kts 245°
2026-04-22 03:25 47.40293 12.37275 16003 ft 319 kts 251°
2026-04-22 03:25 47.39731 12.34124 15569 ft 317 kts 265°
2026-04-22 03:26 47.39670 12.30917 15218 ft 311 kts 277°
2026-04-22 03:26 47.39963 12.27756 14882 ft 308 kts 281°
2026-04-22 03:26 47.40262 12.24646 14402 ft 305 kts 280°
2026-04-22 03:26 47.40549 12.21552 13808 ft 303 kts 280°
2026-04-22 03:27 47.40829 12.18514 13337 ft 295 kts 280°
2026-04-22 03:27 47.41101 12.15547 12905 ft 288 kts 280°
2026-04-22 03:27 47.41369 12.12647 12479 ft 281 kts 279°
2026-04-22 03:27 47.41631 12.09817 12061 ft 275 kts 279°
2026-04-22 03:28 47.41885 12.07056 11640 ft 269 kts 279°
2026-04-22 03:28 47.42137 12.04327 11226 ft 267 kts 279°
2026-04-22 03:28 47.42389 12.01605 10751 ft 270 kts 279°
2026-04-22 03:28 47.42620 11.98853 10220 ft 269 kts 273°
2026-04-22 03:29 47.42406 11.96112 9760 ft 271 kts 254°
2026-04-22 03:29 47.41580 11.93581 9533 ft 280 kts 234°
2026-04-22 03:29 47.40214 11.91511 9543 ft 285 kts 216°
2026-04-22 03:29 47.38532 11.89974 9534 ft 278 kts 211°
2026-04-22 03:30 47.36942 11.88582 9546 ft 253 kts 211°
2026-04-22 03:30 47.35494 11.87315 9551 ft 232 kts 212°
2026-04-22 03:30 47.34254 11.85997 9587 ft 209 kts 225°
2026-04-22 03:30 47.33396 11.84383 9535 ft 193 kts 241°
2026-04-22 03:31 47.32869 11.82664 9531 ft 176 kts 248°
2026-04-22 03:31 47.32440 11.81056 9524 ft 162 kts 254°
2026-04-22 03:31 47.32142 11.79469 9455 ft 160 kts 257°
2026-04-22 03:31 47.31894 11.77878 9245 ft 159 kts 259°
2026-04-22 03:32 47.31666 11.76290 8996 ft 159 kts 259°
2026-04-22 03:32 47.31444 11.74687 8717 ft 160 kts 260°
2026-04-22 03:32 47.31226 11.73097 8436 ft 157 kts 260°
2026-04-22 03:32 47.31013 11.71533 8167 ft 155 kts 260°
2026-04-22 03:33 47.30801 11.69981 7903 ft 154 kts 260°
2026-04-22 03:33 47.30591 11.68434 7636 ft 154 kts 259°
2026-04-22 03:33 47.30381 11.66890 7372 ft 154 kts 259°
2026-04-22 03:33 47.30169 11.65340 7120 ft 155 kts 259°
2026-04-22 03:34 47.29957 11.63786 6855 ft 154 kts 258°
2026-04-22 03:34 47.29748 11.62255 6600 ft 148 kts 258°
2026-04-22 03:34 47.29550 11.60805 6345 ft 143 kts 258°
2026-04-22 03:34 47.29352 11.59364 6095 ft 143 kts 258°
2026-04-22 03:35 47.29157 11.57935 5844 ft 142 kts 258°
2026-04-22 03:35 47.28961 11.56507 5554 ft 142 kts 258°
2026-04-22 03:35 47.28765 11.55084 5257 ft 141 kts 258°
2026-04-22 03:35 47.28570 11.53666 4965 ft 142 kts 258°
2026-04-22 03:36 47.28296 11.52274 4688 ft 142 kts 249°
2026-04-22 03:36 47.27921 11.50927 4457 ft 143 kts 247°
2026-04-22 03:36 47.27626 11.49533 4201 ft 142 kts 256°
2026-04-22 03:36 47.27476 11.48108 4034 ft 140 kts 264°
2026-04-22 03:37 47.27364 11.46693 3812 ft 138 kts 262°
2026-04-22 03:37 47.27201 11.45310 3551 ft 136 kts 260°
2026-04-22 03:37 47.27064 11.43936 3317 ft 136 kts 262°
2026-04-22 03:37 47.26933 11.42561 3144 ft 136 kts 262°
2026-04-22 03:38 47.26753 11.41195 2967 ft 137 kts 259°
2026-04-22 03:38 47.26610 11.39839 2697 ft 135 kts 262°
2026-04-22 03:38 47.26468 11.38437 2409 ft 138 kts 262°
2026-04-22 03:38 47.26313 11.37061 2142 ft 136 kts 262°
2026-04-22 03:39 47.26156 11.35695 1966 ft 136 kts 262°
2026-04-22 03:39 47.26024 11.34421 1904 ft 116 kts 262°
2026-04-22 03:39 47.25947 11.33722 1899 ft 18 kts 249°
2026-04-22 03:39 47.25875 11.33739 1900 ft 13 kts 128°
2026-04-22 03:40 47.25827 11.33849 1904 ft 13 kts 123°
2026-04-22 03:40 47.25777 11.33966 1896 ft 14 kts 110°
2026-04-22 03:40 47.25776 11.34109 1904 ft 15 kts 84°
2026-04-22 03:40 47.25793 11.34261 1892 ft 15 kts 81°
2026-04-22 03:41 47.25810 11.34422 1900 ft 16 kts 81°
2026-04-22 03:41 47.25828 11.34591 1904 ft 17 kts 81°
2026-04-22 03:41 47.25846 11.34752 1901 ft 11 kts 81°
2026-04-22 03:41 47.25858 11.34862 1904 ft 11 kts 81°
2026-04-22 03:42 47.25870 11.34976 1900 ft 12 kts 81°
2026-04-22 03:42 47.25881 11.35088 1892 ft 7 kts 96°
2026-04-22 03:42 47.25842 11.35107 1902 ft 5 kts 170°
2026-04-22 03:42 47.25826 11.35111 1898 ft 0 kts 171°